Flag for Germany Weather past 2 weeks in Bonn, North Rhine-Westphalia, Germany

Now
58 °F

Scattered clouds.


Feels Like: 56 °F
Forecast: 49 / 69 °F
Wind: 8 mph from Northeast

Location: Bonn-Hangelar


UV Index: 3 (Moderate)

Visibility: 16 mi


Pressure: 29.87 "Hg

Humidity: 58%

Dew point: 43 °F

Location of BonnLocation

Historic Weather in Bonn

°F

Bonn temperature yesterday

Maximum temperature yesterday: 51 °F (at 2:00 PM)
Minimum temperature yesterday: 39 °F (at 7:00 AM)
Average temperature yesterday: 46 °F

Past Weeks' High & Low Weather Summary

 TemperatureHumidityPressure
High67 °F (Apr 7, 5:00 PM)99% (Apr 12, 9:00 AM)30.44 "Hg (Apr 12, 9:00 AM)
Low32 °F (Apr 16, 6:00 AM)29% (Apr 17, 4:00 PM)29.77 "Hg (Apr 7, 10:00 PM)
Average49 °F74%30.11 "Hg
* Reported Apr 4 7:00 PM — Apr 19 7:00 PM, Bonn, Weather by CustomWeather, © 2014

Note: Actual official high and low records may vary slightly from our data, if they occured in-between our weather recording intervals... More about our weather records

Advertising

Historic Weather Conditions — Data for Previous 24 hours

 ConditionsComfort  
Time TempWeatherWind HumidityBarometerVisibility
7:00 PM
Apr 19
59 °FPartly sunny.7 mph54%29.88 "Hg19 mi
6:00 PM58 °FPassing clouds.7 mph52%29.90 "Hg31 mi
5:00 PM58 °FPassing clouds.7 mph51%29.92 "Hg31 mi
4:00 PM58 °FPassing clouds.7 mph48%29.94 "Hg31 mi
3:00 PM56 °FPassing clouds.8 mph48%29.97 "Hg31 mi
2:00 PM54 °FPassing clouds.7 mph54%30.00 "Hg31 mi
1:00 PM52 °FScattered clouds.7 mph62%30.01 "Hg25 mi
12:00 PM47 °FPartly sunny.6 mph70%30.03 "Hg25 mi
11:00 AM46 °FScattered clouds.5 mph79%30.06 "Hg12 mi
10:00 AM43 °FFog.9 mph88%30.06 "Hg6 mi
9:00 AM41 °FFog.3 mph89%30.06 "Hg3 mi
8:00 AM40 °FFog.2 mph94%30.04 "Hg2 mi
7:00 AM40 °FFog.2 mph95%30.03 "Hg2 mi
6:00 AM40 °FPassing clouds.7 mph94%30.02 "Hg2 mi
5:00 AM40 °FLow clouds.1 mph93%30.01 "Hg9 mi
4:00 AM40 °FLow clouds.3 mph91%30.01 "Hg16 mi
3:00 AM41 °FOvercast.2 mph88%30.02 "Hg25 mi
2:00 AM41 °FOvercast.2 mph85%30.02 "Hg31 mi
1:00 AM41 °FOvercast.2 mph84%30.03 "Hg31 mi
12:00 AM42 °FPassing clouds.2 mph80%30.03 "Hg31 mi
11:00 PM
Apr 18
42 °FPassing clouds.3 mph78%30.03 "Hg31 mi
10:00 PM45 °FPassing clouds.7 mph72%30.01 "Hg31 mi
9:00 PM47 °FOvercast.3 mph69%29.99 "Hg37 mi
8:00 PM49 °FPartly sunny.6 mph60%29.98 "Hg37 mi
Weather by CustomWeather, © 2014

See weather overview